Zurück zum Katalog

STARLINK-31958

AktivKommunikationVLEO
NORAD 59924·PAYLOAD·🇺🇸 United States

Gestartet Jun 1, 2024 von Cape Canaveral Space Force Station

Loading…

Nächste Überflüge (nächste 24 Stunden)

TLE

AktuellSource: CelesTrak SupGP

Epoche: Sep 15, 2026, 01:54 UTC

1 59924C 24106C   26258.07965278  .00041751  00000+0  15121-2 0  2586
2 59924  43.0023 328.4386 0001637 262.6898 156.9336 15.27559690    18

Verfolge STARLINK-31958 in Echtzeit mit AllMySat

Download on the App Store